QPF
0.01 0.01 0.01 0.01 0.01 0.01 0.01 0.01 0.02 0.02 0.01 0.01 0.01 0.01 0.01 0.01 0.01 0.01 0.01 0.02 0.03 0.04 0.05 0.06 0.06 0.06 0.04 0.06 0.05 0.04 0.04 0.04 0.04 0.03 0.03 0.03 0.03 0.03 0.03 0.04 0.05 0.05 0.04
0.01 0.00 0.01 0.01 0.01 0.01 0.01 0.01 0.02 0.03 0.03 0.02 0.01 0.01 0.01 0.01 0.02 0.02 0.02 0.02 0.03 0.04 0.05 0.06 0.07 0.06 0.04 0.05 0.06 0.04 0.04 0.04 0.03 0.03 0.04 0.04 0.03 0.03 0.03 0.02 0.03 0.05 0.05
0.01 0.00 0.00 0.00 0.01 0.01 0.02 0.02 0.01 0.02 0.05 0.05 0.02 0.01 0.01 0.01 0.03 0.03 0.03 0.03 0.03 0.03 0.05 0.06 0.07 0.07 0.05 0.04 0.06 0.05 0.04 0.04 0.03 0.03 0.03 0.04 0.04 0.04 0.03 0.03 0.03 0.03 0.04
0.01 0.01 0.00 0.00 0.01 0.01 0.01 0.02 0.03 0.03 0.03 0.05 0.05 0.04 0.02 0.02 0.02 0.03 0.04 0.05 0.04 0.04 0.04 0.06 0.07 0.08 0.05 0.04 0.04 0.05 0.04 0.03 0.04 0.03 0.03 0.03 0.03 0.04 0.04 0.04 0.04 0.03 0.03
0.03 0.01 0.01 0.01 0.01 0.01 0.01 0.02 0.02 0.03 0.03 0.04 0.03 0.03 0.02 0.02 0.02 0.03 0.04 0.05 0.06 0.06 0.05 0.05 0.06 0.07 0.05 0.04 0.04 0.05 0.05 0.04 0.03 0.04 0.04 0.03 0.03 0.03 0.03 0.04 0.03 0.04 0.04
0.04 0.02 0.01 0.00 0.01 0.01 0.01 0.01 0.02 0.02 0.02 0.03 0.03 0.01 0.01 0.01 0.02 0.03 0.04 0.05 0.07 0.07 0.06 0.05 0.06 0.07 0.05 0.03 0.03 0.04 0.05 0.04 0.04 0.03 0.04 0.04 0.03 0.03 0.03 0.03 0.03 0.03 0.03
0.04 0.04 0.02 0.01 0.01 0.01 0.02 0.01 0.01 0.02 0.02 0.02 0.03 0.03 0.02 0.01 0.02 0.03 0.04 0.05 0.06 0.07 0.07 0.06 0.06 0.06 0.05 0.03 0.02 0.02 0.04 0.05 0.05 0.04 0.03 0.04 0.04 0.04 0.03 0.03 0.03 0.03 0.03
0.03 0.04 0.03 0.01 0.01 0.01 0.01 0.02 0.02 0.01 0.02 0.03 0.03 0.04 0.04 0.03 0.03 0.03 0.03 0.05 0.06 0.05 0.08 0.08 0.07 0.07 0.05 0.03 0.02 0.02 0.03 0.06 0.06 0.05 0.04 0.03 0.03 0.04 0.04 0.04 0.04 0.04 0.04
0.03 0.03 0.03 0.02 0.02 0.01 0.01 0.01 0.02 0.02 0.02 0.01 0.02 0.03 0.04 0.04 0.04 0.04 0.03 0.04 0.05 0.06 0.06 0.08 0.09 0.07 0.06 0.04 0.02 0.01 0.01 0.05 0.06 0.06 0.06 0.04 0.04 0.04 0.04 0.05 0.05 0.05 0.04
0.02 0.02 0.03 0.03 0.02 0.01 0.01 0.01 0.01 0.01 0.02 0.02 0.02 0.02 0.02 0.03 0.04 0.05 0.05 0.04 0.05 0.05 0.06 0.07 0.09 0.08 0.07 0.04 0.02 0.01 0.01 0.02 0.06 0.06 0.07 0.06 0.05 0.04 0.04 0.05 0.05 0.05 0.05
0.01 0.02 0.02 0.03 0.03 0.03 0.02 0.01 0.01 0.01 0.01 0.02 0.02 0.02 0.02 0.02 0.03 0.04 0.05 0.05 0.05 0.05 0.06 0.07 0.08 0.08 0.06 0.04 0.02 0.01 0.01 0.01 0.03 0.06 0.08 0.08 0.07 0.06 0.06 0.05 0.05 0.05 0.05
0.01 0.01 0.01 0.02 0.02 0.03 0.03 0.03 0.02 0.02 0.02 0.02 0.02 0.03 0.03 0.04 0.03 0.04 0.05 0.05 0.06 0.06 0.06 0.07 0.08 0.07 0.05 0.04 0.02 0.02 0.01 0.01 0.01 0.04 0.08 0.09 0.08 0.08 0.07 0.05 0.04 0.05 0.06
0.01 0.01 0.01 0.01 0.01 0.01 0.02 0.02 0.03 0.03 0.03 0.03 0.02 0.02 0.03 0.04 0.04 0.04 0.05 0.05 0.05 0.07 0.08 0.09 0.09 0.06 0.05 0.04 0.02 0.02 0.01 0.01 0.01 0.02 0.04 0.08 0.09 0.07 0.07 0.06 0.04 0.04 0.05
0.01 0.01 0.01 0.01 0.00 0.01 0.01 0.02 0.02 0.03 0.03 0.03 0.03 0.03 0.02 0.04 0.05 0.05 0.05 0.06 0.05 0.06 0.08 0.09 0.10 0.07 0.05 0.03 0.03 0.03 0.01 0.01 0.01 0.01 0.01 0.04 0.09 0.08 0.07 0.08 0.06 0.05 0.04
0.01 0.01 0.01 0.01 0.01 0.01 0.01 0.01 0.02 0.02 0.03 0.03 0.03 0.03 0.03 0.03 0.05 0.05 0.05 0.06 0.05 0.06 0.07 0.07 0.08 0.08 0.06 0.04 0.04 0.04 0.03 0.03 0.02 0.01 0.01 0.02 0.05 0.08 0.08 0.08 0.09 0.07 0.04
0.01 0.02 0.02 0.01 0.01 0.01 0.01 0.01 0.01 0.02 0.03 0.03 0.04 0.04 0.04 0.04 0.04 0.05 0.05 0.05 0.05 0.04 0.05 0.05 0.06 0.07 0.07 0.06 0.06 0.07 0.08 0.07 0.03 0.02 0.01 0.01 0.02 0.04 0.08 0.08 0.08 0.10 0.08
0.02 0.02 0.02 0.02 0.02 0.01 0.01 0.01 0.02 0.03 0.03 0.04 0.04 0.04 0.04 0.04 0.04 0.05 0.05 0.06 0.05 0.04 0.05 0.05 0.06 0.06 0.07 0.07 0.07 0.07 0.07 0.08 0.07 0.04 0.02 0.01 0.02 0.03 0.04 0.07 0.09 0.09 0.09
0.03 0.04 0.02 0.02 0.03 0.02 0.02 0.02 0.03 0.03 0.03 0.03 0.04 0.04 0.04 0.05 0.04 0.04 0.05 0.06 0.06 0.05 0.05 0.07 0.07 0.06 0.06 0.06 0.06 0.06 0.06 0.06 0.07 0.06 0.03 0.02 0.02 0.03 0.03 0.04 0.08 0.11 0.10
0.02 0.03 0.04 0.04 0.03 0.02 0.03 0.03 0.03 0.03 0.03 0.03 0.03 0.03 0.03 0.04 0.04 0.04 0.05 0.05 0.06 0.07 0.07 0.06 0.06 0.04 0.04 0.05 0.05 0.05 0.05 0.04 0.05 0.06 0.05 0.03 0.02 0.03 0.03 0.03 0.04 0.07 0.10
0.02 0.03 0.05 0.03 0.02 0.02 0.02 0.02 0.04 0.04 0.03 0.03 0.03 0.03 0.02 0.03 0.04 0.03 0.04 0.05 0.05 0.06 0.06 0.05 0.04 0.04 0.03 0.03 0.04 0.04 0.04 0.04 0.03 0.03 0.04 0.04 0.03 0.02 0.03 0.03 0.03 0.03 0.05
0.01 0.02 0.03 0.02 0.02 0.02 0.02 0.03 0.04 0.03 0.03 0.03 0.03 0.03 0.02 0.02 0.03 0.03 0.04 0.05 0.05 0.05 0.04 0.04 0.04 0.04 0.03 0.02 0.03 0.03 0.03 0.03 0.03 0.03 0.03 0.03 0.03 0.02 0.03 0.04 0.04 0.03 0.04
0.01 0.01 0.01 0.01 0.01 0.02 0.03 0.05 0.05 0.03 0.03 0.03 0.02 0.02 0.02 0.02 0.02 0.02 0.02 0.03 0.04 0.05 0.05 0.06 0.05 0.04 0.03 0.03 0.02 0.02 0.02 0.03 0.02 0.02 0.02 0.02 0.02 0.03 0.03 0.04 0.04 0.04 0.04
0.01 0.01 0.01 0.01 0.01 0.02 0.04 0.05 0.06 0.04 0.03 0.02 0.01 0.01 0.01 0.01 0.01 0.01 0.01 0.01 0.02 0.03 0.04 0.04 0.04 0.03 0.03 0.02 0.02 0.02 0.02 0.02 0.02 0.02 0.02 0.02 0.02 0.02 0.02 0.03 0.03 0.03 0.03
0.01 0.01 0.01 0.01 0.01 0.01 0.02 0.03 0.04 0.03 0.02 0.01 0.01 0.00 0.01 0.01 0.01 0.01 0.01 0.02 0.02 0.01 0.02 0.02 0.02 0.02 0.02 0.02 0.02 0.02 0.02 0.02 0.01 0.01 0.01 0.02 0.02 0.02 0.02 0.03 0.03 0.03 0.03
0.01 0.01 0.01 0.01 0.00 0.00 0.01 0.01 0.02 0.02 0.01 0.01 0.00 0.00 0.00 0.00 0.01 0.02 0.03 0.03 0.01 0.01 0.02 0.02 0.02 0.02 0.02 0.02 0.03 0.04 0.04 0.03 0.02 0.01 0.01 0.02 0.02 0.01 0.02 0.02 0.03 0.03 0.03
0.01 0.01 0.01 0.01 0.00 0.00 0.00 0.01 0.02 0.01 0.01 0.00 0.00 0.00 0.00 0.01 0.02 0.03 0.04 0.03 0.02 0.02 0.02 0.02 0.02 0.02 0.02 0.02 0.02 0.03 0.03 0.04 0.03 0.02 0.01 0.01 0.01 0.01 0.02 0.01 0.01 0.02 0.02
MSLP
1021.67 1021.64 1021.62 1021.58 1021.52 1021.42 1021.25 1020.99 1020.63 1020.17 1019.61 1018.98 1018.32 1017.66 1017.05 1016.52 1016.07 1015.72 1015.43 1015.17 1014.89 1014.55 1014.14 1013.64 1013.07 1012.47 1011.86 1011.30 1010.81 1010.40 1010.09 1009.86 1009.69 1009.59 1009.52 1009.50 1009.53 1009.62 1009.78 1010.02 1010.31 1010.65 1011.01
1022.00 1021.99 1021.98 1021.96 1021.91 1021.81 1021.63 1021.34 1020.93 1020.41 1019.77 1019.06 1018.32 1017.61 1016.95 1016.40 1015.95 1015.62 1015.35 1015.11 1014.86 1014.54 1014.13 1013.62 1013.03 1012.39 1011.74 1011.13 1010.58 1010.11 1009.73 1009.42 1009.19 1009.02 1008.89 1008.81 1008.80 1008.86 1009.00 1009.23 1009.54 1009.92 1010.33
1022.40 1022.40 1022.39 1022.36 1022.30 1022.17 1021.96 1021.64 1021.18 1020.60 1019.91 1019.15 1018.36 1017.60 1016.92 1016.34 1015.88 1015.54 1015.28 1015.05 1014.79 1014.47 1014.06 1013.55 1012.95 1012.29 1011.61 1010.96 1010.36 1009.84 1009.39 1009.02 1008.71 1008.46 1008.25 1008.10 1008.02 1008.03 1008.13 1008.34 1008.66 1009.06 1009.51
1022.86 1022.86 1022.83 1022.77 1022.66 1022.50 1022.24 1021.87 1021.38 1020.77 1020.05 1019.27 1018.46 1017.68 1016.98 1016.38 1015.90 1015.53 1015.24 1014.98 1014.71 1014.37 1013.95 1013.42 1012.82 1012.16 1011.47 1010.81 1010.19 1009.62 1009.12 1008.68 1008.30 1007.95 1007.66 1007.41 1007.24 1007.17 1007.21 1007.38 1007.67 1008.07 1008.56
1023.32 1023.31 1023.25 1023.15 1022.99 1022.76 1022.46 1022.05 1021.54 1020.92 1020.21 1019.43 1018.64 1017.86 1017.15 1016.54 1016.03 1015.61 1015.26 1014.95 1014.62 1014.24 1013.79 1013.27 1012.67 1012.02 1011.35 1010.70 1010.07 1009.49 1008.95 1008.45 1007.98 1007.55 1007.15 1006.80 1006.53 1006.36 1006.31 1006.40 1006.64 1007.01 1007.49
1023.74 1023.72 1023.63 1023.47 1023.26 1022.98 1022.62 1022.19 1021.67 1021.06 1020.39 1019.65 1018.90 1018.16 1017.46 1016.83 1016.27 1015.79 1015.37 1014.96 1014.56 1014.12 1013.64 1013.10 1012.51 1011.90 1011.26 1010.63 1010.02 1009.43 1008.86 1008.31 1007.77 1007.24 1006.74 1006.28 1005.90 1005.62 1005.46 1005.46 1005.62 1005.92 1006.36
1024.07 1024.05 1023.93 1023.73 1023.46 1023.13 1022.74 1022.29 1021.78 1021.22 1020.60 1019.94 1019.26 1018.57 1017.90 1017.26 1016.65 1016.10 1015.57 1015.06 1014.56 1014.05 1013.52 1012.96 1012.39 1011.80 1011.20 1010.60 1010.01 1009.41 1008.82 1008.21 1007.60 1006.98 1006.39 1005.83 1005.33 1004.94 1004.69 1004.58 1004.64 1004.87 1005.24
1024.29 1024.27 1024.14 1023.91 1023.60 1023.23 1022.82 1022.37 1021.90 1021.39 1020.86 1020.29 1019.69 1019.08 1018.44 1017.80 1017.15 1016.51 1015.88 1015.26 1014.65 1014.05 1013.46 1012.88 1012.30 1011.72 1011.15 1010.57 1009.98 1009.37 1008.73 1008.06 1007.37 1006.67 1005.99 1005.34 1004.76 1004.29 1003.94 1003.76 1003.73 1003.88 1004.18
1024.40 1024.38 1024.24 1024.00 1023.67 1023.29 1022.87 1022.44 1022.01 1021.57 1021.13 1020.67 1020.17 1019.64 1019.05 1018.42 1017.74 1017.02 1016.29 1015.56 1014.83 1014.14 1013.48 1012.85 1012.24 1011.66 1011.08 1010.48 1009.86 1009.19 1008.48 1007.74 1006.96 1006.17 1005.41 1004.69 1004.06 1003.54 1003.15 1002.92 1002.85 1002.94 1003.18
1024.41 1024.40 1024.27 1024.02 1023.69 1023.30 1022.89 1022.49 1022.10 1021.74 1021.39 1021.03 1020.64 1020.19 1019.66 1019.04 1018.34 1017.57 1016.75 1015.91 1015.09 1014.30 1013.55 1012.86 1012.20 1011.57 1010.93 1010.27 1009.56 1008.80 1007.98 1007.11 1006.22 1005.34 1004.50 1003.74 1003.09 1002.56 1002.18 1001.96 1001.89 1001.97 1002.19
1024.35 1024.36 1024.23 1023.99 1023.66 1023.28 1022.89 1022.51 1022.16 1021.86 1021.60 1021.33 1021.03 1020.66 1020.19 1019.60 1018.90 1018.08 1017.20 1016.28 1015.36 1014.48 1013.65 1012.87 1012.13 1011.42 1010.68 1009.90 1009.06 1008.14 1007.15 1006.13 1005.10 1004.11 1003.20 1002.41 1001.76 1001.27 1000.95 1000.78 1000.77 1000.89 1001.13
1024.28 1024.29 1024.17 1023.94 1023.61 1023.23 1022.84 1022.48 1022.16 1021.91 1021.70 1021.50 1021.28 1020.98 1020.57 1020.02 1019.32 1018.49 1017.56 1016.59 1015.60 1014.64 1013.73 1012.86 1012.02 1011.19 1010.31 1009.37 1008.34 1007.22 1006.04 1004.82 1003.62 1002.51 1001.51 1000.69 1000.07 999.64 999.40 999.34 999.42 999.62 999.93
1024.21 1024.21 1024.10 1023.87 1023.54 1023.16 1022.76 1022.39 1022.08 1021.85 1021.67 1021.52 1021.34 1021.10 1020.74 1020.22 1019.55 1018.72 1017.78 1016.78 1015.75 1014.73 1013.75 1012.80 1011.86 1010.89 1009.86 1008.74 1007.50 1006.16 1004.74 1003.31 1001.93 1000.66 999.58 998.72 998.11 997.74 997.60 997.66 997.86 998.16 998.55
1024.17 1024.16 1024.03 1023.80 1023.46 1023.06 1022.65 1022.25 1021.92 1021.67 1021.50 1021.36 1021.21 1021.00 1020.67 1020.19 1019.55 1018.75 1017.83 1016.82 1015.78 1014.74 1013.71 1012.69 1011.66 1010.58 1009.41 1008.10 1006.66 1005.10 1003.47 1001.82 1000.24 998.82 997.63 996.72 996.10 995.78 995.71 995.86 996.17 996.58 997.05
1024.15 1024.12 1023.98 1023.73 1023.38 1022.95 1022.50 1022.06 1021.69 1021.41 1021.20 1021.05 1020.90 1020.70 1020.39 1019.95 1019.34 1018.58 1017.69 1016.71 1015.69 1014.65 1013.61 1012.57 1011.48 1010.32 1009.03 1007.59 1006.00 1004.26 1002.43 1000.60 998.86 997.29 995.98 994.99 994.34 994.02 993.99 994.19 994.56 995.03 995.56
1024.15 1024.09 1023.94 1023.66 1023.28 1022.82 1022.32 1021.84 1021.42 1021.07 1020.82 1020.63 1020.46 1020.26 1019.96 1019.54 1018.97 1018.25 1017.41 1016.48 1015.50 1014.50 1013.49 1012.46 1011.37 1010.18 1008.84 1007.34 1005.65 1003.81 1001.86 999.91 998.03 996.35 994.94 993.86 993.14 992.77 992.71 992.91 993.27 993.76 994.29
1024.13 1024.06 1023.88 1023.59 1023.18 1022.68 1022.14 1021.61 1021.13 1020.73 1020.42 1020.18 1019.97 1019.74 1019.45 1019.04 1018.51 1017.83 1017.05 1016.18 1015.27 1014.34 1013.39 1012.41 1011.37 1010.22 1008.91 1007.42 1005.74 1003.88 1001.91 999.91 997.99 996.23 994.75 993.58 992.78 992.32 992.18 992.30 992.60 993.02 993.50
1024.08 1023.99 1023.80 1023.49 1023.06 1022.54 1021.96 1021.38 1020.85 1020.39 1020.03 1019.74 1019.50 1019.25 1018.94 1018.54 1018.03 1017.40 1016.68 1015.88 1015.05 1014.20 1013.34 1012.45 1011.50 1010.45 1009.24 1007.85 1006.26 1004.49 1002.59 1000.65 998.75 997.00 995.48 994.25 993.36 992.80 992.54 992.53 992.70 993.00 993.38
1023.98 1023.88 1023.68 1023.35 1022.91 1022.37 1021.77 1021.16 1020.59 1020.10 1019.70 1019.37 1019.09 1018.81 1018.49 1018.10 1017.61 1017.02 1016.35 1015.62 1014.86 1014.10 1013.34 1012.57 1011.74 1010.83 1009.77 1008.54 1007.13 1005.53 1003.80 1002.00 1000.22 998.54 997.05 995.81 994.86 994.20 993.81 993.65 993.67 993.82 994.05
1023.84 1023.73 1023.51 1023.17 1022.72 1022.17 1021.56 1020.94 1020.36 1019.85 1019.42 1019.06 1018.75 1018.45 1018.12 1017.73 1017.26 1016.70 1016.08 1015.41 1014.73 1014.06 1013.39 1012.73 1012.04 1011.29 1010.41 1009.39 1008.20 1006.84 1005.35 1003.77 1002.18 1000.65 999.26 998.07 997.10 996.38 995.88 995.59 995.46 995.44 995.52
1023.67 1023.53 1023.30 1022.95 1022.48 1021.93 1021.33 1020.71 1020.13 1019.61 1019.17 1018.80 1018.47 1018.16 1017.83 1017.44 1016.98 1016.46 1015.87 1015.26 1014.64 1014.04 1013.47 1012.91 1012.35 1011.74 1011.05 1010.25 1009.30 1008.21 1006.99 1005.69 1004.34 1003.03 1001.81 1000.72 999.80 999.07 998.52 998.13 997.88 997.74 997.69
1023.49 1023.33 1023.06 1022.68 1022.21 1021.65 1021.05 1020.45 1019.88 1019.37 1018.94 1018.56 1018.23 1017.91 1017.58 1017.19 1016.76 1016.26 1015.71 1015.14 1014.58 1014.03 1013.53 1013.05 1012.59 1012.12 1011.60 1010.99 1010.28 1009.46 1008.52 1007.51 1006.45 1005.39 1004.38 1003.46 1002.65 1001.97 1001.42 1001.00 1000.69 1000.47 1000.33
1023.34 1023.12 1022.80 1022.39 1021.90 1021.34 1020.74 1020.16 1019.61 1019.12 1018.69 1018.33 1018.00 1017.68 1017.35 1016.98 1016.55 1016.08 1015.57 1015.04 1014.51 1014.02 1013.56 1013.15 1012.76 1012.39 1011.99 1011.55 1011.04 1010.46 1009.79 1009.05 1008.28 1007.49 1006.72 1006.01 1005.36 1004.80 1004.32 1003.93 1003.61 1003.37 1003.20
1023.23 1022.94 1022.56 1022.10 1021.58 1021.00 1020.42 1019.85 1019.32 1018.85 1018.44 1018.08 1017.76 1017.45 1017.12 1016.76 1016.36 1015.92 1015.44 1014.95 1014.46 1014.00 1013.58 1013.21 1012.87 1012.56 1012.26 1011.93 1011.58 1011.18 1010.73 1010.25 1009.73 1009.20 1008.69 1008.19 1007.74 1007.33 1006.97 1006.66 1006.40 1006.19 1006.04
1023.16 1022.79 1022.34 1021.83 1021.27 1020.69 1020.11 1019.55 1019.04 1018.59 1018.20 1017.85 1017.54 1017.23 1016.92 1016.57 1016.19 1015.78 1015.34 1014.89 1014.44 1014.01 1013.62 1013.28 1012.97 1012.70 1012.45 1012.21 1011.96 1011.70 1011.42 1011.13 1010.83 1010.54 1010.24 1009.96 1009.70 1009.46 1009.24 1009.04 1008.87 1008.74 1008.64
1023.12 1022.67 1022.16 1021.60 1021.02 1020.42 1019.84 1019.31 1018.82 1018.39 1018.01 1017.67 1017.37 1017.07 1016.76 1016.44 1016.08 1015.70 1015.30 1014.89 1014.48 1014.10 1013.74 1013.42 1013.14 1012.89 1012.67 1012.48 1012.30 1012.14 1011.98 1011.83 1011.70 1011.58 1011.47 1011.37 1011.28 1011.19 1011.11 1011.03 1010.97 1010.91 1010.88
Thickness
5572 5572 5572 5572 5572 5573 5575 5577 5579 5582 5585 5587 5589 5591 5593 5595 5597 5598 5600 5601 5603 5606 5609 5611 5613 5615 5617 5618 5620 5621 5623 5625 5626 5628 5629 5631 5633 5635 5636 5638 5639 5640 5642
5561 5561 5561 5561 5561 5561 5563 5565 5567 5570 5573 5575 5578 5580 5582 5584 5586 5588 5589 5591 5593 5595 5597 5600 5602 5604 5606 5608 5609 5611 5613 5615 5617 5618 5620 5622 5624 5626 5628 5630 5631 5633 5634
5549 5549 5549 5549 5549 5549 5551 5553 5555 5558 5560 5563 5566 5568 5570 5572 5574 5576 5578 5580 5582 5583 5585 5587 5590 5592 5594 5596 5598 5600 5602 5604 5606 5608 5610 5612 5614 5616 5618 5621 5622 5624 5626
5537 5537 5537 5537 5536 5537 5538 5540 5542 5545 5548 5550 5553 5555 5558 5560 5562 5564 5566 5568 5570 5572 5573 5575 5577 5579 5581 5584 5586 5588 5590 5592 5595 5597 5599 5601 5604 5606 5609 5611 5613 5616 5618
5525 5525 5524 5524 5524 5524 5525 5526 5529 5531 5534 5537 5540 5542 5544 5547 5549 5551 5554 5555 5557 5559 5561 5563 5564 5566 5569 5571 5573 5575 5578 5580 5583 5585 5588 5590 5593 5596 5598 5601 5603 5606 5609
5512 5512 5511 5511 5511 5511 5512 5513 5515 5517 5519 5522 5526 5529 5531 5533 5535 5537 5539 5541 5543 5545 5547 5550 5552 5554 5555 5558 5560 5562 5565 5567 5570 5573 5576 5579 5582 5585 5588 5590 5593 5596 5599
5500 5499 5499 5498 5498 5498 5499 5500 5501 5504 5506 5508 5512 5516 5519 5520 5522 5522 5524 5526 5528 5530 5532 5535 5537 5540 5542 5543 5545 5548 5551 5554 5557 5560 5563 5566 5570 5573 5576 5579 5583 5585 5589
5487 5486 5486 5485 5484 5485 5485 5486 5487 5489 5491 5493 5497 5503 5509 5511 5509 5509 5510 5511 5513 5515 5517 5519 5522 5524 5526 5528 5531 5532 5535 5539 5542 5546 5550 5554 5557 5561 5565 5568 5572 5575 5578
5474 5473 5472 5472 5472 5471 5472 5472 5473 5475 5477 5479 5480 5484 5492 5498 5495 5497 5497 5497 5498 5499 5501 5504 5506 5508 5510 5513 5515 5518 5519 5523 5527 5531 5535 5539 5544 5548 5552 5556 5560 5564 5567
5462 5461 5459 5459 5459 5459 5458 5458 5459 5460 5461 5464 5465 5466 5468 5472 5476 5483 5484 5483 5482 5483 5485 5487 5489 5491 5493 5495 5498 5500 5502 5506 5510 5515 5519 5524 5529 5534 5539 5543 5547 5551 5555
5450 5448 5447 5446 5446 5445 5445 5445 5445 5446 5446 5448 5449 5450 5452 5455 5457 5462 5469 5469 5468 5468 5469 5471 5472 5474 5476 5478 5480 5483 5485 5490 5494 5498 5503 5508 5514 5519 5524 5529 5533 5538 5542
5438 5436 5435 5434 5433 5432 5432 5432 5432 5432 5432 5433 5434 5435 5437 5439 5442 5445 5449 5451 5453 5454 5454 5455 5456 5458 5459 5461 5463 5465 5468 5473 5477 5482 5487 5492 5497 5503 5508 5513 5518 5523 5528
5427 5425 5423 5421 5420 5419 5418 5418 5418 5418 5418 5419 5419 5420 5421 5422 5424 5426 5429 5433 5436 5439 5440 5440 5440 5441 5442 5444 5446 5448 5452 5455 5460 5465 5470 5475 5480 5486 5491 5497 5502 5507 5513
5416 5413 5411 5409 5408 5406 5405 5405 5405 5405 5405 5405 5405 5405 5406 5407 5407 5409 5412 5414 5419 5424 5426 5426 5425 5425 5426 5427 5429 5431 5435 5438 5442 5448 5453 5458 5463 5468 5474 5480 5485 5491 5496
5404 5401 5399 5398 5396 5394 5393 5392 5392 5392 5391 5391 5391 5390 5391 5392 5392 5394 5395 5397 5400 5407 5413 5413 5410 5410 5409 5410 5412 5414 5419 5423 5427 5432 5437 5442 5446 5452 5457 5463 5469 5474 5479
5392 5389 5387 5386 5384 5382 5381 5379 5379 5378 5378 5377 5376 5376 5377 5378 5378 5379 5380 5381 5383 5387 5393 5396 5393 5394 5393 5394 5396 5398 5403 5407 5413 5418 5422 5426 5431 5436 5441 5446 5452 5457 5462
5380 5378 5376 5374 5372 5371 5369 5367 5366 5365 5365 5364 5363 5363 5363 5362 5364 5365 5366 5368 5369 5371 5374 5377 5376 5377 5378 5380 5382 5384 5387 5392 5397 5402 5406 5410 5415 5419 5424 5429 5435 5440 5445
5368 5366 5364 5362 5361 5359 5357 5355 5354 5353 5352 5352 5351 5350 5350 5349 5350 5351 5352 5353 5355 5356 5358 5360 5362 5362 5364 5365 5367 5369 5373 5377 5382 5386 5390 5395 5399 5404 5408 5413 5418 5424 5429
5356 5354 5352 5350 5349 5347 5345 5344 5342 5341 5340 5339 5338 5338 5338 5338 5338 5338 5339 5340 5341 5342 5343 5345 5348 5348 5350 5351 5353 5356 5359 5363 5366 5370 5374 5379 5384 5389 5393 5398 5403 5408 5413
5344 5342 5340 5339 5337 5335 5334 5332 5331 5330 5329 5328 5327 5327 5327 5327 5327 5326 5326 5327 5328 5328 5329 5331 5333 5335 5337 5338 5340 5343 5346 5349 5352 5356 5359 5363 5368 5373 5378 5383 5389 5394 5397
5332 5330 5328 5327 5326 5325 5323 5321 5320 5320 5318 5318 5316 5316 5315 5315 5314 5314 5314 5315 5315 5315 5316 5318 5321 5323 5324 5325 5327 5329 5331 5335 5339 5341 5345 5350 5355 5360 5363 5368 5371 5376 5381
5320 5319 5317 5316 5315 5314 5312 5311 5310 5309 5308 5306 5306 5305 5304 5303 5302 5302 5302 5302 5302 5303 5304 5306 5309 5310 5312 5313 5314 5315 5317 5321 5327 5329 5330 5335 5339 5345 5349 5353 5357 5361 5364
5309 5308 5306 5305 5304 5304 5302 5301 5300 5299 5297 5295 5294 5293 5293 5292 5291 5291 5291 5291 5292 5292 5293 5294 5297 5298 5300 5301 5302 5304 5304 5306 5311 5313 5313 5321 5325 5330 5334 5338 5342 5345 5348
5298 5297 5296 5295 5294 5293 5292 5291 5289 5287 5286 5285 5283 5282 5282 5281 5281 5280 5281 5282 5282 5283 5283 5283 5286 5287 5287 5287 5288 5290 5291 5294 5297 5299 5300 5306 5312 5316 5320 5324 5328 5330 5333
5288 5286 5286 5285 5284 5283 5281 5279 5278 5276 5276 5275 5273 5272 5271 5271 5271 5271 5271 5272 5273 5274 5273 5273 5274 5275 5276 5276 5276 5277 5279 5282 5286 5290 5289 5292 5298 5301 5307 5311 5314 5315 5318
5278 5276 5275 5274 5273 5272 5271 5270 5269 5268 5267 5266 5265 5264 5262 5262 5262 5261 5261 5262 5264 5264 5263 5264 5264 5265 5266 5267 5266 5266 5268 5270 5274 5278 5280 5279 5283 5286 5292 5299 5300 5301 5304